iso_date,epoch_date,Year,Hour,Min,DOY,POS_DOY,Lat,Lon,BP,Ts,Ta,has_bp,has_ts,has_ta,BuoyID,Buoy_Type,Buoy_Owner,Logistics,Hemisphere
2014-03-03T01:00:28Z,1393808429,2014,1,0,62.042,62.042,62.46698,-114.41595,1000.52,-999.00,-999.0,yes,no,no,169312003533456,WB,BAS,APL_Sachs_Harbor,North
2014-03-03T01:59:31Z,1393811971,2014,2,0,62.083,62.083,62.46698,-114.41592,1001.72,-999.00,-999.0,yes,no,no,169312003533456,WB,BAS,APL_Sachs_Harbor,North
2014-03-03T03:00:00Z,1393815600,2014,3,0,62.125,62.125,62.46695,-114.41598,997.98,-999.00,-999.0,yes,no,no,169312003533456,WB,BAS,APL_Sachs_Harbor,North
2014-03-03T04:00:28Z,1393819229,2014,4,0,62.167,62.167,62.46697,-114.416,997.98,-999.00,-999.0,yes,no,no,169312003533456,WB,BAS,APL_Sachs_Harbor,North
2014-03-03T04:59:31Z,1393822771,2014,5,0,62.208,62.208,62.46697,-114.416,997.98,-999.00,-999.0,yes,no,no,169312003533456,WB,BAS,APL_Sachs_Harbor,North
2014-03-03T06:00:00Z,1393826400,2014,6,0,62.25,62.25,62.46697,-114.41597,996.65,-999.00,-999.0,yes,no,no,169312003533456,WB,BAS,APL_Sachs_Harbor,North
2014-03-03T07:00:28Z,1393830029,2014,7,0,62.292,62.292,62.46697,-114.41598,995.45,-999.00,-999.0,yes,no,no,169312003533456,WB,BAS,APL_Sachs_Harbor,North
2014-03-03T07:59:31Z,1393833571,2014,8,0,62.333,62.333,62.46693,-114.41595,996.65,-999.00,-999.0,yes,no,no,169312003533456,WB,BAS,APL_Sachs_Harbor,North
2014-03-03T09:00:00Z,1393837200,2014,9,0,62.375,62.375,62.46695,-114.41598,996.65,-999.00,-999.0,yes,no,no,169312003533456,WB,BAS,APL_Sachs_Harbor,North
2014-03-03T10:00:28Z,1393840829,2014,10,0,62.417,62.417,62.46698,-114.41593,995.45,-999.00,-999.0,yes,no,no,169312003533456,WB,BAS,APL_Sachs_Harbor,North
2014-03-03T10:59:31Z,1393844371,2014,11,0,62.458,62.458,62.46695,-114.41595,996.65,-999.00,-999.0,yes,no,no,169312003533456,WB,BAS,APL_Sachs_Harbor,North
2014-03-03T12:00:00Z,1393848000,2014,12,0,62.5,62.5,62.46698,-114.41607,996.65,-999.00,-999.0,yes,no,no,169312003533456,WB,BAS,APL_Sachs_Harbor,North
2014-03-03T13:00:28Z,1393851629,2014,13,0,62.542,62.542,62.46695,-114.41598,996.65,-999.00,-999.0,yes,no,no,169312003533456,WB,BAS,APL_Sachs_Harbor,North
2014-03-03T13:59:31Z,1393855171,2014,14,0,62.583,62.583,62.46697,-114.41595,996.65,-999.00,-999.0,yes,no,no,169312003533456,WB,BAS,APL_Sachs_Harbor,North
2014-03-03T15:00:00Z,1393858800,2014,15,0,62.625,62.625,62.46697,-114.41597,996.65,-999.00,-999.0,yes,no,no,169312003533456,WB,BAS,APL_Sachs_Harbor,North
2014-03-03T16:00:28Z,1393862429,2014,16,0,62.667,62.667,62.46695,-114.41595,994.12,-999.00,-999.0,yes,no,no,169312003533456,WB,BAS,APL_Sachs_Harbor,North
2014-03-19T18:00:00Z,1395252000,2014,18,0,78.75,78.75,75.42332,-137.27752,1027.32,-999.00,-999.0,yes,no,no,169312003533456,WB,BAS,APL_Sachs_Harbor,North
2014-03-19T19:00:28Z,1395255629,2014,19,0,78.792,78.792,75.42375,-137.27825,1025.99,-999.00,-999.0,yes,no,no,169312003533456,WB,BAS,APL_Sachs_Harbor,North
2014-03-19T21:00:00Z,1395262800,2014,21,0,78.875,78.875,75.42488,-137.27663,1031.19,-999.00,-999.0,yes,no,no,169312003533456,WB,BAS,APL_Sachs_Harbor,North
2014-03-19T22:00:28Z,1395266429,2014,22,0,78.917,78.917,75.4252,-137.27583,1031.19,-999.00,-999.0,yes,no,no,169312003533456,WB,BAS,APL_Sachs_Harbor,North
2014-03-19T22:59:31Z,1395269971,2014,23,0,78.958,78.958,75.42582,-137.27323,1031.19,-999.00,-999.0,yes,no,no,169312003533456,WB,BAS,APL_Sachs_Harbor,North
2014-03-20T00:00:00Z,1395273600,2014,0,0,79.0,79.0,75.4259,-137.27265,1031.19,-999.00,-999.0,yes,no,no,169312003533456,WB,BAS,APL_Sachs_Harbor,North
2014-03-20T01:00:28Z,1395277229,2014,1,0,79.042,79.042,75.4262,-137.268,1031.19,-999.00,-999.0,yes,no,no,169312003533456,WB,BAS,APL_Sachs_Harbor,North
2014-03-20T01:59:31Z,1395280771,2014,2,0,79.083,79.083,75.4262,-137.26458,1029.86,-999.00,-999.0,yes,no,no,169312003533456,WB,BAS,APL_Sachs_Harbor,North
2014-03-20T03:00:00Z,1395284400,2014,3,0,79.125,79.125,75.42615,-137.26353,1028.51,-999.00,-999.0,yes,no,no,169312003533456,WB,BAS,APL_Sachs_Harbor,North
2014-03-20T04:00:28Z,1395288029,2014,4,0,79.167,79.167,75.42613,-137.25895,1029.85,-999.00,-999.0,yes,no,no,169312003533456,WB,BAS,APL_Sachs_Harbor,North
2014-03-20T04:59:31Z,1395291571,2014,5,0,79.208,79.208,75.42612,-137.2549,1033.71,-999.00,-999.0,yes,no,no,169312003533456,WB,BAS,APL_Sachs_Harbor,North
2014-03-20T06:00:00Z,1395295200,2014,6,0,79.25,79.25,75.42623,-137.25145,1033.71,-999.00,-999.0,yes,no,no,169312003533456,WB,BAS,APL_Sachs_Harbor,North
2014-03-20T07:00:28Z,1395298829,2014,7,0,79.292,79.292,75.42655,-137.24773,1031.18,-999.00,-999.0,yes,no,no,169312003533456,WB,BAS,APL_Sachs_Harbor,North
2014-03-20T07:59:31Z,1395302371,2014,8,0,79.333,79.333,75.42678,-137.2397,1032.38,-999.00,-999.0,yes,no,no,169312003533456,WB,BAS,APL_Sachs_Harbor,North
2014-03-20T09:00:00Z,1395306000,2014,9,0,79.375,79.375,75.42725,-137.23005,1027.31,-999.00,-999.0,yes,no,no,169312003533456,WB,BAS,APL_Sachs_Harbor,North
2014-03-20T10:00:28Z,1395309629,2014,10,0,79.417,79.417,75.42733,-137.21933,1031.18,-999.00,-999.0,yes,no,no,169312003533456,WB,BAS,APL_Sachs_Harbor,North
2014-03-20T10:59:31Z,1395313171,2014,11,0,79.458,79.458,75.4272,-137.20897,1029.85,-999.00,-999.0,yes,no,no,169312003533456,WB,BAS,APL_Sachs_Harbor,North
2014-03-20T12:00:00Z,1395316800,2014,12,0,79.5,79.5,75.42723,-137.19708,1032.38,-999.00,-999.0,yes,no,no,169312003533456,WB,BAS,APL_Sachs_Harbor,North
2014-03-20T13:00:28Z,1395320429,2014,13,0,79.542,79.542,75.42758,-137.18252,1029.85,-999.00,-999.0,yes,no,no,169312003533456,WB,BAS,APL_Sachs_Harbor,North
2014-03-20T13:59:31Z,1395323971,2014,14,0,79.583,79.583,75.42795,-137.1696,1029.85,-999.00,-999.0,yes,no,no,169312003533456,WB,BAS,APL_Sachs_Harbor,North
2014-03-20T15:00:00Z,1395327600,2014,15,0,79.625,79.625,75.42887,-137.1563,1028.51,-999.00,-999.0,yes,no,no,169312003533456,WB,BAS,APL_Sachs_Harbor,North
2014-03-20T16:00:28Z,1395331229,2014,16,0,79.667,79.667,75.43003,-137.141,1027.31,-999.00,-999.0,yes,no,no,169312003533456,WB,BAS,APL_Sachs_Harbor,North
2014-03-20T16:59:31Z,1395334771,2014,17,0,79.708,79.708,75.43178,-137.12273,1027.31,-999.00,-999.0,yes,no,no,169312003533456,WB,BAS,APL_Sachs_Harbor,North
2014-03-20T18:00:00Z,1395338400,2014,18,0,79.75,79.75,75.43378,-137.10463,1025.98,-999.00,-999.0,yes,no,no,169312003533456,WB,BAS,APL_Sachs_Harbor,North
2014-03-20T19:00:28Z,1395342029,2014,19,0,79.792,79.792,75.43575,-137.0807,1024.78,-999.00,-999.0,yes,no,no,169312003533456,WB,BAS,APL_Sachs_Harbor,North
2014-03-20T19:59:31Z,1395345571,2014,20,0,79.833,79.833,75.43713,-137.05537,1024.79,-999.00,-999.0,yes,no,no,169312003533456,WB,BAS,APL_Sachs_Harbor,North
2014-03-20T21:00:00Z,1395349200,2014,21,0,79.875,79.875,75.43778,-137.02208,1023.45,-999.00,-999.0,yes,no,no,169312003533456,WB,BAS,APL_Sachs_Harbor,North
2014-03-20T22:00:28Z,1395352829,2014,22,0,79.917,79.917,75.43803,-137.0036,1024.79,-999.00,-999.0,yes,no,no,169312003533456,WB,BAS,APL_Sachs_Harbor,North
2014-03-20T22:59:31Z,1395356371,2014,23,0,79.958,79.958,75.43705,-136.97507,1023.45,-999.00,-999.0,yes,no,no,169312003533456,WB,BAS,APL_Sachs_Harbor,North
2014-03-21T00:00:00Z,1395360000,2014,0,0,80.0,80.0,75.43592,-136.95342,1024.79,-999.00,-999.0,yes,no,no,169312003533456,WB,BAS,APL_Sachs_Harbor,North
2014-03-21T01:00:28Z,1395363629,2014,1,0,80.042,80.042,75.43367,-136.93142,1023.46,-999.00,-999.0,yes,no,no,169312003533456,WB,BAS,APL_Sachs_Harbor,North
2014-03-21T01:59:31Z,1395367171,2014,2,0,80.083,80.083,75.43105,-136.91683,1024.79,-999.00,-999.0,yes,no,no,169312003533456,WB,BAS,APL_Sachs_Harbor,North
2014-03-21T03:00:00Z,1395370800,2014,3,0,80.125,80.125,75.42853,-136.90567,1025.98,-999.00,-999.0,yes,no,no,169312003533456,WB,BAS,APL_Sachs_Harbor,North
2014-03-21T04:00:28Z,1395374429,2014,4,0,80.167,80.167,75.4269,-136.89867,1027.31,-999.00,-999.0,yes,no,no,169312003533456,WB,BAS,APL_Sachs_Harbor,North
2014-03-21T06:00:00Z,1395381600,2014,6,0,80.25,80.25,75.42392,-136.88455,1024.78,-999.00,-999.0,yes,no,no,169312003533456,WB,BAS,APL_Sachs_Harbor,North
2014-03-21T07:00:28Z,1395385229,2014,7,0,80.292,80.292,75.42262,-136.87468,1024.78,-999.00,-999.0,yes,no,no,169312003533456,WB,BAS,APL_Sachs_Harbor,North
2014-03-21T07:59:31Z,1395388771,2014,8,0,80.333,80.333,75.42177,-136.86523,1023.45,-999.00,-999.0,yes,no,no,169312003533456,WB,BAS,APL_Sachs_Harbor,North
2014-03-21T09:00:00Z,1395392400,2014,9,0,80.375,80.375,75.42135,-136.85295,1024.78,-999.00,-999.0,yes,no,no,169312003533456,WB,BAS,APL_Sachs_Harbor,North
2014-03-21T10:00:28Z,1395396029,2014,10,0,80.417,80.417,75.4212,-136.8395,1023.45,-999.00,-999.0,yes,no,no,169312003533456,WB,BAS,APL_Sachs_Harbor,North
2014-03-21T10:59:31Z,1395399571,2014,11,0,80.458,80.458,75.42082,-136.8224,1019.58,-999.00,-999.0,yes,no,no,169312003533456,WB,BAS,APL_Sachs_Harbor,North
2014-03-21T12:00:00Z,1395403200,2014,12,0,80.5,80.5,75.4211,-136.80373,1022.25,-999.00,-999.0,yes,no,no,169312003533456,WB,BAS,APL_Sachs_Harbor,North
2014-03-21T13:00:28Z,1395406829,2014,13,0,80.542,80.542,75.42103,-136.78812,1019.58,-999.00,-999.0,yes,no,no,169312003533456,WB,BAS,APL_Sachs_Harbor,North
2014-03-21T13:59:31Z,1395410371,2014,14,0,80.583,80.583,75.42095,-136.7704,1019.58,-999.00,-999.0,yes,no,no,169312003533456,WB,BAS,APL_Sachs_Harbor,North
2014-03-21T15:00:00Z,1395414000,2014,15,0,80.625,80.625,75.42152,-136.7548,1017.05,-999.00,-999.0,yes,no,no,169312003533456,WB,BAS,APL_Sachs_Harbor,North
2014-03-21T16:00:28Z,1395417629,2014,16,0,80.667,80.667,75.4221,-136.73672,1015.85,-999.00,-999.0,yes,no,no,169312003533456,WB,BAS,APL_Sachs_Harbor,North
2014-03-21T16:59:31Z,1395421171,2014,17,0,80.708,80.708,75.42357,-136.717,1009.45,-999.00,-999.0,yes,no,no,169312003533456,WB,BAS,APL_Sachs_Harbor,North
2014-03-21T18:00:00Z,1395424800,2014,18,0,80.75,80.75,75.42433,-136.69552,1019.58,-999.00,-999.0,yes,no,no,169312003533456,WB,BAS,APL_Sachs_Harbor,North
2014-03-21T19:00:28Z,1395428429,2014,19,0,80.792,80.792,75.4244,-136.67398,1013.32,-999.00,-999.0,yes,no,no,169312003533456,WB,BAS,APL_Sachs_Harbor,North
2014-03-21T19:59:31Z,1395431971,2014,20,0,80.833,80.833,75.42328,-136.65082,1013.32,-999.00,-999.0,yes,no,no,169312003533456,WB,BAS,APL_Sachs_Harbor,North
2014-03-21T21:00:00Z,1395435600,2014,21,0,80.875,80.875,75.42078,-136.6297,1010.66,-999.00,-999.0,yes,no,no,169312003533456,WB,BAS,APL_Sachs_Harbor,North
2014-03-21T22:00:28Z,1395439229,2014,22,0,80.917,80.917,75.41693,-136.61242,1011.99,-999.00,-999.0,yes,no,no,169312003533456,WB,BAS,APL_Sachs_Harbor,North
2014-03-21T22:59:31Z,1395442771,2014,23,0,80.958,80.958,75.41208,-136.5982,1017.05,-999.00,-999.0,yes,no,no,169312003533456,WB,BAS,APL_Sachs_Harbor,North
2014-03-22T00:00:00Z,1395446400,2014,0,0,81.0,81.0,75.40578,-136.58908,1015.85,-999.00,-999.0,yes,no,no,169312003533456,WB,BAS,APL_Sachs_Harbor,North
2014-03-22T01:00:28Z,1395450029,2014,1,0,81.042,81.042,75.39713,-136.58667,1018.39,-999.00,-999.0,yes,no,no,169312003533456,WB,BAS,APL_Sachs_Harbor,North
2014-03-22T01:59:31Z,1395453571,2014,2,0,81.083,81.083,75.3914,-136.59228,1014.52,-999.00,-999.0,yes,no,no,169312003533456,WB,BAS,APL_Sachs_Harbor,North
2014-03-22T03:00:00Z,1395457200,2014,3,0,81.125,81.125,75.38527,-136.60483,1018.38,-999.00,-999.0,yes,no,no,169312003533456,WB,BAS,APL_Sachs_Harbor,North
2014-03-22T04:00:28Z,1395460829,2014,4,0,81.167,81.167,75.38053,-136.61747,1018.38,-999.00,-999.0,yes,no,no,169312003533456,WB,BAS,APL_Sachs_Harbor,North
2014-03-22T04:59:31Z,1395464371,2014,5,0,81.208,81.208,75.37648,-136.62867,1019.58,-999.00,-999.0,yes,no,no,169312003533456,WB,BAS,APL_Sachs_Harbor,North
2014-03-22T06:00:00Z,1395468000,2014,6,0,81.25,81.25,75.37283,-136.63867,1020.91,-999.00,-999.0,yes,no,no,169312003533456,WB,BAS,APL_Sachs_Harbor,North
2014-03-22T07:00:28Z,1395471629,2014,7,0,81.292,81.292,75.3698,-136.64672,1022.25,-999.00,-999.0,yes,no,no,169312003533456,WB,BAS,APL_Sachs_Harbor,North
2014-03-22T07:59:31Z,1395475171,2014,8,0,81.333,81.333,75.36867,-136.64777,1022.25,-999.00,-999.0,yes,no,no,169312003533456,WB,BAS,APL_Sachs_Harbor,North
2014-03-22T09:00:00Z,1395478800,2014,9,0,81.375,81.375,75.36697,-136.64843,1022.25,-999.00,-999.0,yes,no,no,169312003533456,WB,BAS,APL_Sachs_Harbor,North
2014-03-22T10:00:28Z,1395482429,2014,10,0,81.417,81.417,75.36363,-136.64607,1024.78,-999.00,-999.0,yes,no,no,169312003533456,WB,BAS,APL_Sachs_Harbor,North
2014-03-22T10:59:31Z,1395485971,2014,11,0,81.458,81.458,75.3606,-136.64405,1025.98,-999.00,-999.0,yes,no,no,169312003533456,WB,BAS,APL_Sachs_Harbor,North
2014-03-22T12:00:00Z,1395489600,2014,12,0,81.5,81.5,75.3576,-136.64345,1025.98,-999.00,-999.0,yes,no,no,169312003533456,WB,BAS,APL_Sachs_Harbor,North
2014-03-22T13:00:28Z,1395493229,2014,13,0,81.542,81.542,75.35402,-136.64212,1025.98,-999.00,-999.0,yes,no,no,169312003533456,WB,BAS,APL_Sachs_Harbor,North
2014-03-22T13:59:31Z,1395496771,2014,14,0,81.583,81.583,75.35087,-136.64298,1027.31,-999.00,-999.0,yes,no,no,169312003533456,WB,BAS,APL_Sachs_Harbor,North
2014-03-22T15:00:00Z,1395500400,2014,15,0,81.625,81.625,75.34847,-136.64542,1025.98,-999.00,-999.0,yes,no,no,169312003533456,WB,BAS,APL_Sachs_Harbor,North
2014-03-22T16:00:28Z,1395504029,2014,16,0,81.667,81.667,75.34637,-136.64735,1027.31,-999.00,-999.0,yes,no,no,169312003533456,WB,BAS,APL_Sachs_Harbor,North
2014-03-22T16:59:31Z,1395507571,2014,17,0,81.708,81.708,75.34493,-136.65028,1028.52,-999.00,-999.0,yes,no,no,169312003533456,WB,BAS,APL_Sachs_Harbor,North
2014-03-22T18:00:00Z,1395511200,2014,18,0,81.75,81.75,75.34423,-136.65105,1025.99,-999.00,-999.0,yes,no,no,169312003533456,WB,BAS,APL_Sachs_Harbor,North
2014-03-22T19:00:28Z,1395514829,2014,19,0,81.792,81.792,75.34285,-136.65165,1031.19,-999.00,-999.0,yes,no,no,169312003533456,WB,BAS,APL_Sachs_Harbor,North
2014-03-22T19:59:31Z,1395518371,2014,20,0,81.833,81.833,75.34243,-136.65135,1029.86,-999.00,-999.0,yes,no,no,169312003533456,WB,BAS,APL_Sachs_Harbor,North
2014-03-22T21:00:00Z,1395522000,2014,21,0,81.875,81.875,75.34088,-136.64838,1029.85,-999.00,-999.0,yes,no,no,169312003533456,WB,BAS,APL_Sachs_Harbor,North
2014-03-22T22:00:28Z,1395525629,2014,22,0,81.917,81.917,75.3393,-136.6447,1032.39,-999.00,-999.0,yes,no,no,169312003533456,WB,BAS,APL_Sachs_Harbor,North
2014-03-22T22:59:31Z,1395529171,2014,23,0,81.958,81.958,75.338,-136.64093,1033.72,-999.00,-999.0,yes,no,no,169312003533456,WB,BAS,APL_Sachs_Harbor,North
2014-03-23T00:00:00Z,1395532800,2014,0,0,82.0,82.0,75.33532,-136.63562,1033.72,-999.00,-999.0,yes,no,no,169312003533456,WB,BAS,APL_Sachs_Harbor,North
2014-03-23T01:00:28Z,1395536429,2014,1,0,82.042,82.042,75.33308,-136.63145,1036.25,-999.00,-999.0,yes,no,no,169312003533456,WB,BAS,APL_Sachs_Harbor,North
2014-03-23T01:59:31Z,1395539971,2014,2,0,82.083,82.083,75.3323,-136.63008,1036.25,-999.00,-999.0,yes,no,no,169312003533456,WB,BAS,APL_Sachs_Harbor,North
2014-03-23T03:00:00Z,1395543600,2014,3,0,82.125,82.125,75.33087,-136.62708,1033.71,-999.00,-999.0,yes,no,no,169312003533456,WB,BAS,APL_Sachs_Harbor,North
2014-03-23T04:00:28Z,1395547229,2014,4,0,82.167,82.167,75.33045,-136.62718,1033.71,-999.00,-999.0,yes,no,no,169312003533456,WB,BAS,APL_Sachs_Harbor,North
2014-03-23T04:59:31Z,1395550771,2014,5,0,82.208,82.208,75.32887,-136.62292,1034.91,-999.00,-999.0,yes,no,no,169312003533456,WB,BAS,APL_Sachs_Harbor,North
2014-03-23T06:00:00Z,1395554400,2014,6,0,82.25,82.25,75.32832,-136.62087,1034.91,-999.00,-999.0,yes,no,no,169312003533456,WB,BAS,APL_Sachs_Harbor,North
2014-03-23T07:00:28Z,1395558029,2014,7,0,82.292,82.292,75.3277,-136.61663,1032.38,-999.00,-999.0,yes,no,no,169312003533456,WB,BAS,APL_Sachs_Harbor,North
2014-03-23T07:59:31Z,1395561571,2014,8,0,82.333,82.333,75.32772,-136.61257,1033.71,-999.00,-999.0,yes,no,no,169312003533456,WB,BAS,APL_Sachs_Harbor,North
2014-03-23T09:00:00Z,1395565200,2014,9,0,82.375,82.375,75.32783,-136.60705,1034.91,-999.00,-999.0,yes,no,no,169312003533456,WB,BAS,APL_Sachs_Harbor,North
2014-03-23T10:00:28Z,1395568829,2014,10,0,82.417,82.417,75.32792,-136.59757,1033.71,-999.00,-999.0,yes,no,no,169312003533456,WB,BAS,APL_Sachs_Harbor,North
2014-03-23T10:59:31Z,1395572371,2014,11,0,82.458,82.458,75.32813,-136.58818,1031.18,-999.00,-999.0,yes,no,no,169312003533456,WB,BAS,APL_Sachs_Harbor,North
2014-03-23T12:00:00Z,1395576000,2014,12,0,82.5,82.5,75.3284,-136.58272,1031.18,-999.00,-999.0,yes,no,no,169312003533456,WB,BAS,APL_Sachs_Harbor,North
2014-03-23T13:00:28Z,1395579629,2014,13,0,82.542,82.542,75.32863,-136.57218,1032.38,-999.00,-999.0,yes,no,no,169312003533456,WB,BAS,APL_Sachs_Harbor,North
2014-03-23T13:59:31Z,1395583171,2014,14,0,82.583,82.583,75.3292,-136.563,1029.84,-999.00,-999.0,yes,no,no,169312003533456,WB,BAS,APL_Sachs_Harbor,North
2014-03-23T15:00:00Z,1395586800,2014,15,0,82.625,82.625,75.32982,-136.55573,1028.51,-999.00,-999.0,yes,no,no,169312003533456,WB,BAS,APL_Sachs_Harbor,North
2014-03-23T16:00:28Z,1395590429,2014,16,0,82.667,82.667,75.3304,-136.54895,1029.84,-999.00,-999.0,yes,no,no,169312003533456,WB,BAS,APL_Sachs_Harbor,North
2014-03-23T16:59:31Z,1395593971,2014,17,0,82.708,82.708,75.33188,-136.53737,1027.31,-999.00,-999.0,yes,no,no,169312003533456,WB,BAS,APL_Sachs_Harbor,North
2014-03-23T18:00:00Z,1395597600,2014,18,0,82.75,82.75,75.33307,-136.52797,1025.98,-999.00,-999.0,yes,no,no,169312003533456,WB,BAS,APL_Sachs_Harbor,North
2014-03-23T19:00:28Z,1395601229,2014,19,0,82.792,82.792,75.33448,-136.51828,1024.78,-999.00,-999.0,yes,no,no,169312003533456,WB,BAS,APL_Sachs_Harbor,North
2014-03-23T19:59:31Z,1395604771,2014,20,0,82.833,82.833,75.33585,-136.50707,1023.45,-999.00,-999.0,yes,no,no,169312003533456,WB,BAS,APL_Sachs_Harbor,North
2014-03-23T21:00:00Z,1395608400,2014,21,0,82.875,82.875,75.33715,-136.49272,1024.79,-999.00,-999.0,yes,no,no,169312003533456,WB,BAS,APL_Sachs_Harbor,North
2014-03-23T22:00:28Z,1395612029,2014,22,0,82.917,82.917,75.33847,-136.48068,1023.46,-999.00,-999.0,yes,no,no,169312003533456,WB,BAS,APL_Sachs_Harbor,North
2014-03-23T22:59:31Z,1395615571,2014,23,0,82.958,82.958,75.33947,-136.46598,1024.79,-999.00,-999.0,yes,no,no,169312003533456,WB,BAS,APL_Sachs_Harbor,North
2014-03-24T00:00:00Z,1395619200,2014,0,0,83.0,83.0,75.34008,-136.45432,1023.45,-999.00,-999.0,yes,no,no,169312003533456,WB,BAS,APL_Sachs_Harbor,North
2014-03-24T01:59:31Z,1395626371,2014,2,0,83.083,83.083,75.34053,-136.43287,1018.38,-999.00,-999.0,yes,no,no,169312003533456,WB,BAS,APL_Sachs_Harbor,North
2014-03-24T03:00:00Z,1395630000,2014,3,0,83.125,83.125,75.34072,-136.42425,1011.98,-999.00,-999.0,yes,no,no,169312003533456,WB,BAS,APL_Sachs_Harbor,North
2014-03-24T04:00:28Z,1395633629,2014,4,0,83.167,83.167,75.34017,-136.41783,1019.58,-999.00,-999.0,yes,no,no,169312003533456,WB,BAS,APL_Sachs_Harbor,North
2014-03-24T04:59:31Z,1395637171,2014,5,0,83.208,83.208,75.33957,-136.41363,1017.05,-999.00,-999.0,yes,no,no,169312003533456,WB,BAS,APL_Sachs_Harbor,North
2014-03-24T06:00:00Z,1395640800,2014,6,0,83.25,83.25,75.33797,-136.41005,1017.05,-999.00,-999.0,yes,no,no,169312003533456,WB,BAS,APL_Sachs_Harbor,North
2014-03-24T07:00:28Z,1395644429,2014,7,0,83.292,83.292,75.33692,-136.40917,1017.05,-999.00,-999.0,yes,no,no,169312003533456,WB,BAS,APL_Sachs_Harbor,North
2014-03-24T07:59:31Z,1395647971,2014,8,0,83.333,83.333,75.33507,-136.40842,1017.05,-999.00,-999.0,yes,no,no,169312003533456,WB,BAS,APL_Sachs_Harbor,North
2014-03-24T09:00:00Z,1395651600,2014,9,0,83.375,83.375,75.33292,-136.40967,1019.58,-999.00,-999.0,yes,no,no,169312003533456,WB,BAS,APL_Sachs_Harbor,North
2014-03-24T10:00:28Z,1395655229,2014,10,0,83.417,83.417,75.33008,-136.41133,1019.58,-999.00,-999.0,yes,no,no,169312003533456,WB,BAS,APL_Sachs_Harbor,North
2014-03-24T10:59:31Z,1395658771,2014,11,0,83.458,83.458,75.32763,-136.41382,1019.58,-999.00,-999.0,yes,no,no,169312003533456,WB,BAS,APL_Sachs_Harbor,North
2014-03-24T12:00:00Z,1395662400,2014,12,0,83.5,83.5,75.325,-136.41623,1020.91,-999.00,-999.0,yes,no,no,169312003533456,WB,BAS,APL_Sachs_Harbor,North
2014-03-24T13:00:28Z,1395666029,2014,13,0,83.542,83.542,75.32147,-136.41817,1022.25,-999.00,-999.0,yes,no,no,169312003533456,WB,BAS,APL_Sachs_Harbor,North
2014-03-24T13:59:31Z,1395669571,2014,14,0,83.583,83.583,75.31842,-136.42052,1023.44,-999.00,-999.0,yes,no,no,169312003533456,WB,BAS,APL_Sachs_Harbor,North
2014-03-24T15:00:00Z,1395673200,2014,15,0,83.625,83.625,75.31633,-136.4218,1024.78,-999.00,-999.0,yes,no,no,169312003533456,WB,BAS,APL_Sachs_Harbor,North
2014-03-24T16:00:28Z,1395676829,2014,16,0,83.667,83.667,75.31193,-136.42347,1023.45,-999.00,-999.0,yes,no,no,169312003533456,WB,BAS,APL_Sachs_Harbor,North
2014-03-24T16:59:31Z,1395680371,2014,17,0,83.708,83.708,75.31028,-136.42465,1024.79,-999.00,-999.0,yes,no,no,169312003533456,WB,BAS,APL_Sachs_Harbor,North
2014-03-24T18:00:00Z,1395684000,2014,18,0,83.75,83.75,75.30845,-136.4258,1024.79,-999.00,-999.0,yes,no,no,169312003533456,WB,BAS,APL_Sachs_Harbor,North
2014-03-24T19:00:28Z,1395687629,2014,19,0,83.792,83.792,75.30652,-136.42628,1024.79,-999.00,-999.0,yes,no,no,169312003533456,WB,BAS,APL_Sachs_Harbor,North
2014-03-24T19:59:31Z,1395691171,2014,20,0,83.833,83.833,75.30523,-136.42563,1025.99,-999.00,-999.0,yes,no,no,169312003533456,WB,BAS,APL_Sachs_Harbor,North
2014-03-24T21:00:00Z,1395694800,2014,21,0,83.875,83.875,75.30372,-136.42463,1029.85,-999.00,-999.0,yes,no,no,169312003533456,WB,BAS,APL_Sachs_Harbor,North
2014-03-24T22:00:28Z,1395698429,2014,22,0,83.917,83.917,75.30182,-136.42238,1031.19,-999.00,-999.0,yes,no,no,169312003533456,WB,BAS,APL_Sachs_Harbor,North
2014-03-24T22:59:31Z,1395701971,2014,23,0,83.958,83.958,75.29992,-136.41858,1031.19,-999.00,-999.0,yes,no,no,169312003533456,WB,BAS,APL_Sachs_Harbor,North
2014-03-25T00:00:00Z,1395705600,2014,0,0,84.0,84.0,75.29757,-136.4105,1032.39,-999.00,-999.0,yes,no,no,169312003533456,WB,BAS,APL_Sachs_Harbor,North
2014-03-25T01:00:28Z,1395709229,2014,1,0,84.042,84.042,75.29552,-136.40132,1031.19,-999.00,-999.0,yes,no,no,169312003533456,WB,BAS,APL_Sachs_Harbor,North
2014-03-25T01:59:31Z,1395712771,2014,2,0,84.083,84.083,75.29493,-136.39812,1031.19,-999.00,-999.0,yes,no,no,169312003533456,WB,BAS,APL_Sachs_Harbor,North
2014-03-25T03:00:00Z,1395716400,2014,3,0,84.125,84.125,75.29228,-136.38498,1015.85,-999.00,-999.0,yes,no,no,169312003533456,WB,BAS,APL_Sachs_Harbor,North
2014-03-25T04:00:28Z,1395720029,2014,4,0,84.167,84.167,75.29082,-136.37977,1028.51,-999.00,-999.0,yes,no,no,169312003533456,WB,BAS,APL_Sachs_Harbor,North
2014-03-25T04:59:31Z,1395723571,2014,5,0,84.208,84.208,75.28977,-136.37688,1031.18,-999.00,-999.0,yes,no,no,169312003533456,WB,BAS,APL_Sachs_Harbor,North
2014-03-25T06:00:00Z,1395727200,2014,6,0,84.25,84.25,75.28872,-136.37365,1029.85,-999.00,-999.0,yes,no,no,169312003533456,WB,BAS,APL_Sachs_Harbor,North
2014-03-25T07:00:28Z,1395730829,2014,7,0,84.292,84.292,75.28787,-136.37155,1029.85,-999.00,-999.0,yes,no,no,169312003533456,WB,BAS,APL_Sachs_Harbor,North
2014-03-25T07:59:31Z,1395734371,2014,8,0,84.333,84.333,75.28765,-136.37008,1029.85,-999.00,-999.0,yes,no,no,169312003533456,WB,BAS,APL_Sachs_Harbor,North
2014-03-25T09:00:00Z,1395738000,2014,9,0,84.375,84.375,75.28758,-136.36857,1027.31,-999.00,-999.0,yes,no,no,169312003533456,WB,BAS,APL_Sachs_Harbor,North
2014-03-25T10:00:28Z,1395741629,2014,10,0,84.417,84.417,75.28757,-136.36813,1029.85,-999.00,-999.0,yes,no,no,169312003533456,WB,BAS,APL_Sachs_Harbor,North
2014-03-25T10:59:31Z,1395745171,2014,11,0,84.458,84.458,75.2876,-136.3652,1028.51,-999.00,-999.0,yes,no,no,169312003533456,WB,BAS,APL_Sachs_Harbor,North
2014-03-25T12:00:00Z,1395748800,2014,12,0,84.5,84.5,75.28763,-136.3649,1027.31,-999.00,-999.0,yes,no,no,169312003533456,WB,BAS,APL_Sachs_Harbor,North
2014-03-25T13:00:28Z,1395752429,2014,13,0,84.542,84.542,75.28793,-136.36367,1025.98,-999.00,-999.0,yes,no,no,169312003533456,WB,BAS,APL_Sachs_Harbor,North
2014-03-25T13:59:31Z,1395755971,2014,14,0,84.583,84.583,75.28802,-136.3633,1027.31,-999.00,-999.0,yes,no,no,169312003533456,WB,BAS,APL_Sachs_Harbor,North
2014-03-25T15:00:00Z,1395759600,2014,15,0,84.625,84.625,75.28823,-136.3624,1025.98,-999.00,-999.0,yes,no,no,169312003533456,WB,BAS,APL_Sachs_Harbor,North